Regional Weather Roundup
Issued by NWS

Home | Current Version | Previous Version | Text Only | Print | Product List | Glossary On
Versions: 1 2 3 4 5 6 7 8 9 10 11 12 13 14 15 16 17 18 19 20 21 22 23 24 25 26 27 28 29 30 31 32 33 34 35 36 37 38 39 40 41 42 43 44 45 46 47 48 49 50
000
ASUS42 KFFC 282110
RWRGA
WEATHER ROUNDUP FOR GEORGIA
NATIONAL WEATHER SERVICE PEACHTREE CITY GA
500 PM EDT TUE JUL 28 2015

NOTE: "FAIR" INDICATES FEW OR NO CLOUDS BELOW 12,000 FEET WITH NO
SIGNIFICANT WEATHER AND/OR OBSTRUCTIONS TO VISIBILITY.

* = USE WITH CAUTION. THE STATIONS MARKED WITH AN ASTERISK MAY NOT
REPORT WEATHER SUCH AS PRECIPITATION, FOG, OR THUNDER AND ARE NOT
QUALITY CONTROLLED BY NWS.

THE REMARK "TC" DENOTES TEMPERATURE READING IN DEGREES CELSIUS.

GAZ001>058-282200-
NORTH GEORGIA

CITY           SKY/WX    TMP DP  RH WIND       PRES   REMARKS
ATLANTA        MOSUNNY   92  71  50 SE6       29.97F HX  98
ATHENS         PTSUNNY   98  66  34 VRB3      29.95F HX 101
CHAMBLEE       MOSUNNY   94  71  47 S6        29.96F HX 101
PEACHTREE CITY SUNNY     96  70  42 VRB5      29.96F HX 102
ROME           MOSUNNY   91  71  51 S12       29.95F HX  97
WEST ATLANTA   MOSUNNY   96  69  41 NW8       29.95F HX 102
GAINESVILLE    MOSUNNY   93  70  46 VRB7      30.00F HX  99
CARTERSVILLE   CLOUDY    85  70  60 VRB3      29.99R


CITY           SKY/WX    TMP DP  RH WIND       PRES   REMARKS
DALTON*        PTSUNNY   86  77  74 NW3       29.98R THUNDER HX  97
LAWRENCEVILLE* MOSUNNY   93  66  40 CALM      29.95F HX  96
MARIETTA       PTSUNNY   94  67  40 W9        29.97F HX  97
KENNESAW*      MOSUNNY   93  70  46 NW9       29.99F HX  99
BLAIRSVILLE*     N/A     86  39  18 CALM      30.03F
$$

GAZ059>098-102>109-282200-
CENTRAL GEORGIA

CITY           SKY/WX    TMP DP  RH WIND       PRES   REMARKS
AUGUSTA-BUSH   MOSUNNY   90  71  53 S12       29.93S HX  96
AUGUSTA-DANIEL PTSUNNY   91  70  49 S13       29.95S HX  96
COLUMBUS       PTSUNNY   95  68  41 CALM      29.92F HX  99
MACON          PTSUNNY   93  69  45 SE9       29.92F HX  98
ROBINS AFB     PTSUNNY   95  73  48 E8        29.91F HX 104


CITY           SKY/WX    TMP DP  RH WIND       PRES   REMARKS
LAGRANGE*      MOSUNNY   98  78  52 CALM      29.95F HX 115
SYLVANIA*      PTSUNNY   94  76  55 CALM      29.94S HX 106
MILLEDGEVILLE* HVY RAIN  88  75  66 CALM      29.92F HX  97
$$

GAZ099>101-110>166-282200-
SOUTH GEORGIA

CITY           SKY/WX    TMP DP  RH WIND       PRES   REMARKS
SAVANNAH       PTSUNNY   90  73  57 SE9       29.92F HX  98
VALDOSTA       MOSUNNY   93  74  53 E6        29.92F HX 103
ALMA           MOSUNNY   94  71  47 VRB5      29.92F HX 101
ST SIMONS      MOSUNNY   86  76  71 E15       29.93F HX  96
FT STEWART     SUNNY     92  71  49 SE10      29.90F HX  99
ALBANY         SUNNY     98  68  37 E5        29.94F HX 103
HUNTER AFB     SUNNY     89  75  62 E13       29.91F HX  99
MOODY AFB      PTSUNNY   94  73  50 E7        29.92F HX 102
BRUNSWICK      MOSUNNY   90  73  58 NE12G18   29.94S HX  98


CITY           SKY/WX    TMP DP  RH WIND       PRES   REMARKS
BAINBRIDGE*    SUNNY    100  72  39 E7        29.92F HX 109
MOULTRIE*      SUNNY     97  68  38 E5        29.94F HX 101
VIDALIA*       RAIN      95  70  43 E10       29.93S HX 101
WAYCROSS*      SUNNY     96  76  52 NE7       29.92S HX 109
DOUGLAS*       MOSUNNY   97  70  41 E6        29.94F HX 103
$$



USA.gov is the U.S. government's official web portal to all federal, state and local government web resources and services.